Retour au catalogue

COSMOS 397 DEB *

ActifLEO
NORAD 5763·DEBRIS·🇷🇺 Russia

Lancé Feb 25, 1971 depuis Baikonur Cosmodrome

Loading…

Prochains Passages (prochaines 24 heures)

TLE

FraisSource: Space-Track

Époque: Sep 13, 2026, 11:24 UTC

1 05763U 71015CF  26256.47567725  .00001160  00000-0  14652-2 0  9997
2 05763  66.8984  73.9175 0368353 196.3326 162.5600 13.41898591664728

Suivez COSMOS 397 DEB * en temps réel avec AllMySat

Download on the App Store